Rutland, VT

12:46 PM EDT on April 28, 2017 (GMT -0400)
Rutland State

Weather History for KRUT - March, 2011

Change the Weather History Date:

Tuesday, March 29, 2011

  Actual Average Record
Temperature  
Mean Temperature 27 °F -  
Max Temperature 35 °F - 78 °F (1981)
Min Temperature 19 °F - 3 °F (1974)
Degree Days  
Heating Degree Days 38    
Month to date heating degree days  
Since 1 July heating degree days  
Cooling Degree Days 0    
Month to date cooling degree days  
Year to date cooling degree days  
Moisture  
Dew Point 16 °F    
Average Humidity 62    
Maximum Humidity 86    
Minimum Humidity 44    
Precipitation  
Precipitation 0.00 in - 0.75 in (1993)
Month to date precipitation  
Year to date precipitation  
Sea Level Pressure  
Sea Level Pressure 30.00 in    
Wind  
Wind Speed 5 mph (NW)    
Max Wind Speed 13 mph    
Max Gust Speed 18 mph    
Visibility 10 miles    
Events      
T = Trace of Precipitation, MM = Missing Value Source: NWS Daily Summary

Daily Weather History Graph

Daily Weather History Graph

Search for Another Location

Airport or City:

Trip Planner

Search our weather history database for the weather conditions in past years. The results will help you decide how hot, cold, wet, or windy it might be!

Date:

Astronomy

Mar. 29, 2011 Rise Set
Actual Time 6:39 AM EDT 7:14 PM EDT
Civil Twilight 6:10 AM EDT 7:43 PM EDT
Nautical Twilight 5:36 AM EDT 8:17 PM EDT
Astronomical Twilight 5:01 AM EDT 8:52 PM EDT
Moon 4:11 AM EDT (3/29) 2:44 PM EDT (3/29)
Length of Visible Light 13h 32m
Length of Day
12h 35m
Waning Crescent, 21% of the Moon is Illuminated
Mar 29
Waning Crescent
Apr 3
New
Apr 11
First Quarter
Apr 17
Full
Apr 24
Last Quarter

Hourly Weather History & Observations

Time (EDT) Temp. Windchill Dew Point Humidity Pressure Visibility Wind Dir Wind Speed Gust Speed Precip Events Conditions
12:15 AM 28.4 °F 23.3 °F 15.8 °F 59% 29.95 in 10.0 mi WNW 4.6 mph - N/A   Overcast
12:35 AM 28.4 °F 21.2 °F 15.8 °F 59% 29.94 in 10.0 mi NW 6.9 mph - N/A   Mostly Cloudy
12:55 AM 26.6 °F 19.1 °F 15.8 °F 64% 29.95 in 10.0 mi WNW 6.9 mph - N/A   Partly Cloudy
1:15 AM 26.6 °F 21.2 °F 14.0 °F 59% 29.95 in 10.0 mi WNW 4.6 mph - N/A   Clear
1:35 AM 26.6 °F - 14.0 °F 59% 29.94 in 10.0 mi Calm Calm - N/A   Clear
1:55 AM 24.8 °F - 14.0 °F 64% 29.94 in 10.0 mi Calm Calm - N/A   Clear
2:15 AM 24.8 °F 20.5 °F 14.0 °F 64% 29.94 in 10.0 mi WNW 3.5 mph - N/A   Clear
2:35 AM 24.8 °F - 14.0 °F 64% 29.94 in 10.0 mi Calm Calm - N/A   Clear
2:55 AM 24.8 °F - 15.8 °F 69% 29.94 in 10.0 mi Calm Calm - N/A   Clear
3:15 AM 24.8 °F - 14.0 °F 64% 29.94 in 10.0 mi Calm Calm - N/A   Clear
3:35 AM 21.2 °F - 14.0 °F 74% 29.94 in 10.0 mi Calm Calm - N/A   Clear
3:55 AM 21.2 °F - 15.8 °F 80% 29.94 in 10.0 mi Calm Calm - N/A   Clear
4:15 AM 21.2 °F - 15.8 °F 80% 29.94 in 10.0 mi Calm Calm - N/A   Clear
4:35 AM 21.2 °F 16.4 °F 12.2 °F 68% 29.96 in 10.0 mi SSE 3.5 mph - N/A   Clear
4:55 AM 21.2 °F - 15.8 °F 80% 29.95 in 10.0 mi Calm Calm - N/A   Clear
5:15 AM 19.4 °F - 12.2 °F 74% 29.96 in 10.0 mi Calm Calm - N/A   Clear
5:35 AM 19.4 °F 14.3 °F 12.2 °F 74% 29.96 in 10.0 mi SSE 3.5 mph - N/A   Clear
5:55 AM 21.2 °F - 14.0 °F 74% 29.96 in 10.0 mi Calm Calm - N/A   Clear
6:15 AM 19.4 °F - 12.2 °F 74% 29.97 in 10.0 mi Calm Calm - N/A   Clear
6:35 AM 19.4 °F - 14.0 °F 80% 29.98 in 10.0 mi Calm Calm - N/A   Clear
6:55 AM 19.4 °F - 15.8 °F 86% 29.98 in 10.0 mi Calm Calm - N/A   Clear
7:15 AM 19.4 °F - 14.0 °F 80% 29.99 in 10.0 mi Calm Calm - N/A   Clear
7:35 AM 21.2 °F - 15.8 °F 80% 29.99 in 10.0 mi Calm Calm - N/A   Clear
7:55 AM 24.8 °F - 17.6 °F 74% 30.00 in 10.0 mi Calm Calm - N/A   Scattered Clouds
8:15 AM 26.6 °F - 15.8 °F 64% 30.01 in 10.0 mi Calm Calm - N/A   Mostly Cloudy
8:55 AM 26.6 °F 20.0 °F 15.8 °F 64% 30.02 in 10.0 mi North 5.8 mph - N/A   Overcast
9:15 AM 28.4 °F 21.2 °F 15.8 °F 59% 30.02 in 10.0 mi NNW 6.9 mph - N/A   Overcast
9:55 AM 28.4 °F 20.4 °F 15.8 °F 59% 30.03 in 10.0 mi NNW 8.1 mph - N/A   Overcast
10:15 AM 28.4 °F 19.1 °F 17.6 °F 64% 30.03 in 10.0 mi NW 10.4 mph - N/A   Overcast
11:15 AM 30.2 °F 23.4 °F 15.8 °F 55% 30.04 in 10.0 mi NNW 6.9 mph - N/A   Overcast
11:35 AM 28.4 °F 19.7 °F 17.6 °F 64% 30.04 in 6.0 mi NW 9.2 mph - N/A   Overcast
11:55 AM 28.4 °F 19.7 °F 17.6 °F 64% 30.04 in 8.0 mi NW 9.2 mph - N/A   Overcast
12:15 PM 30.2 °F 21.9 °F 19.4 °F 64% 30.04 in 6.0 mi WNW 9.2 mph - N/A   Overcast
12:35 PM 28.4 °F 20.4 °F 19.4 °F 69% 30.04 in 3.0 mi NNW 8.1 mph - N/A   Mostly Cloudy
12:55 PM 30.2 °F 20.8 °F 19.4 °F 64% 30.04 in 10.0 mi NW 11.5 mph 18.4 mph N/A   Mostly Cloudy
1:15 PM 32.0 °F 23.0 °F 17.6 °F 55% 30.03 in 10.0 mi NW 11.5 mph 16.1 mph N/A   Overcast
1:35 PM 30.2 °F 20.8 °F 17.6 °F 60% 30.03 in 10.0 mi NW 11.5 mph - N/A   Overcast
1:55 PM 33.8 °F 27.7 °F 17.6 °F 52% 30.03 in 10.0 mi NW 6.9 mph - N/A   Overcast
2:15 PM 33.8 °F 27.0 °F 17.6 °F 52% 30.02 in 10.0 mi NW 8.1 mph 18.4 mph N/A   Overcast
2:35 PM 33.8 °F 25.8 °F 15.8 °F 48% 30.02 in 10.0 mi NNW 10.4 mph 17.3 mph N/A   Overcast
3:15 PM 33.8 °F 25.3 °F 17.6 °F 52% 30.03 in 10.0 mi NW 11.5 mph 18.4 mph N/A   Overcast
3:35 PM 33.8 °F 25.3 °F 17.6 °F 52% 30.02 in 10.0 mi North 11.5 mph 16.1 mph N/A   Overcast
3:55 PM 33.8 °F 28.6 °F 17.6 °F 52% 30.02 in 10.0 mi NW 5.8 mph - N/A   Overcast
4:15 PM 33.8 °F 25.3 °F 17.6 °F 52% 30.02 in 10.0 mi NNW 11.5 mph 17.3 mph N/A   Overcast
4:35 PM 35.6 °F 29.2 °F 17.6 °F 48% 30.02 in 10.0 mi NNW 8.1 mph - N/A   Mostly Cloudy
4:55 PM 35.6 °F 29.2 °F 17.6 °F 48% 30.03 in 10.0 mi NNW 8.1 mph - N/A   Mostly Cloudy
5:15 PM 35.6 °F 28.6 °F 17.6 °F 48% 30.03 in 10.0 mi North 9.2 mph - N/A   Mostly Cloudy
5:35 PM 35.6 °F 27.1 °F 15.8 °F 44% 30.03 in 10.0 mi North 12.7 mph 17.3 mph N/A   Mostly Cloudy
5:55 PM 35.6 °F 28.6 °F 17.6 °F 48% 30.04 in 10.0 mi North 9.2 mph - N/A   Overcast
6:15 PM 35.6 °F 28.0 °F 17.6 °F 48% 30.04 in 10.0 mi NNW 10.4 mph - N/A   Overcast
6:35 PM 35.6 °F 27.5 °F 15.8 °F 44% 30.04 in 10.0 mi NW 11.5 mph - N/A   Scattered Clouds
6:55 PM 33.8 °F 27.7 °F 15.8 °F 48% 30.05 in 10.0 mi NNW 6.9 mph - N/A   Scattered Clouds
7:15 PM 33.8 °F 28.6 °F 15.8 °F 48% 30.06 in 10.0 mi NW 5.8 mph - N/A   Partly Cloudy
7:35 PM 32.0 °F 26.4 °F 15.8 °F 51% 30.06 in 10.0 mi NW 5.8 mph - N/A   Clear
7:55 PM 32.0 °F 26.4 °F 15.8 °F 51% 30.06 in 10.0 mi WNW 5.8 mph - N/A   Clear
8:15 PM 30.2 °F 24.3 °F 15.8 °F 55% 30.07 in 10.0 mi NW 5.8 mph - N/A   Clear
8:35 PM 30.2 °F 25.4 °F 15.8 °F 55% 30.08 in 10.0 mi WNW 4.6 mph - N/A   Clear
8:55 PM 30.2 °F 26.7 °F 15.8 °F 55% 30.08 in 10.0 mi West 3.5 mph - N/A   Clear
9:15 PM 28.4 °F - 15.8 °F 59% 30.09 in 10.0 mi Calm Calm - N/A   Clear
9:35 PM 26.6 °F 22.6 °F 15.8 °F 64% 30.09 in 10.0 mi ESE 3.5 mph - N/A   Clear
9:55 PM 28.4 °F 23.3 °F 15.8 °F 59% 30.10 in 10.0 mi SE 4.6 mph - N/A   Clear
10:15 PM 26.6 °F - 15.8 °F 64% 30.10 in 10.0 mi Calm Calm - N/A   Clear
10:35 PM 26.6 °F 22.6 °F 17.6 °F 69% 30.10 in 10.0 mi ESE 3.5 mph - N/A   Mostly Cloudy
10:55 PM 26.6 °F - 17.6 °F 69% 30.09 in 10.0 mi Calm Calm - N/A   Mostly Cloudy
11:15 PM 26.6 °F 22.6 °F 17.6 °F 69% 30.09 in 10.0 mi SE 3.5 mph - N/A   Mostly Cloudy
11:35 PM 28.4 °F - 17.6 °F 64% 30.09 in 10.0 mi Calm Calm - N/A   Overcast
11:55 PM 26.6 °F - 19.4 °F 74% 30.09 in 10.0 mi Calm Calm - N/A   Overcast